Location: Camaret
(48.2753°N, 4.5961°W)
Time: 00:26:16
(UTC+00:00)

Cosmos 2082 - Pass Details

Date: 29 October 2020
Orbit: 832 x 857 km, 71.0° (Epoch: 26 November)

Event Time Altitude Azimuth Distance (km) Brightness Sun altitude
Rises 18:09:39 0° 334° (NNW) 3,437 7.1 -11.5°
Reaches altitude 10° 18:12:10 10° 338° (NNW) 2,499 6.3 -11.9°
Maximum altitude 18:17:49 57° 57° (ENE) 1,009 3.8 -12.8°
Drops below altitude 10° 18:23:27 10° 136° (SE) 2,486 5.8 -13.8°
Enters shadow 18:25:41 - 140° (SE) 3,320 6.5 -14.1°
